{"data":{"norad_id":52364,"epoch":"2026-05-24T21:08:07.276128Z","epoch_age_seconds":95411,"freshness":"FRESH","line1":"1 52364U 22045AK  26144.88063977 -.00000242  00000+0  28738-5 0  9999","line2":"2 52364  53.2139 207.0009 0001237  91.9874 268.1260 15.08834107227423","mean_motion":15.08834107,"eccentricity":0.0001237,"inclination_deg":53.2139,"raan_deg":207.0009,"arg_perigee_deg":91.9874,"mean_anomaly_deg":268.126,"bstar":2.8738e-6,"rev_number":22742,"period_min":95.437927424847,"perigee_km":538.90565753392,"apogee_km":540.61714559847,"semimajor_km":6917.8984015662,"source":"CELESTRAK","updated_at":"2026-05-25T13:38:17.119176Z"}}